Location: Arezzo
(43.4170°N, 11.8830°E)
Time: 02:53:24
(UTC+01:00)

ISS - Visible Passes

Search period start: 06 December 2023 00:00
Search period end: 16 December 2023 00:00
Orbit: 415 x 417 km, 51.6° (Epoch: 05 December)

Date Brightness Start Highest point End Pass type
(mag) Time Alt. Az. Time Alt. Az. Time Alt. Az.
06 Dec -2.4 17:29:14 10° WNW 17:32:25 42° SW 17:35:36 10° SSE visible
08 Dec -0.6 17:29:36 10° W 17:31:47 16° SW 17:33:58 10° S visible
13 Dec 0.2 07:00:27 10° SE 07:01:16 11° SE 07:02:05 10° ESE visible
15 Dec -1.4 06:57:40 10° SSW 07:00:35 28° SE 07:03:29 10° ENE visible
